Find Shiyan 20C

NORAD ID: 54214 Int'l Des: 2022-142 Owner: CASC Country: CN operational
LEOCIRCULAR

Live-Position

3D-Globus wird geladen...

Über Shiyan 20C

Beschreibung wird geladen...

Nächste Überflüge

Passes for default location (London). Set your location on the main map for personalized predictions.

Höhenverlauf

Loading altitude history...

Zweizeiliger Elementsatz

1 54214U 22142A 26107.32267383 -.00000047 00000-0 35080-4 0 9999
2 54214 59.9948 141.4975 0008941 234.2412 125.7792 14.29504422180996
Epoch: 17. Apr. 2026 • Age: 9 hours

Aktueller Status

Höhe 800.3 km
Geschwindigkeit 7.45 km/s
Subsatellitenpunkt 22.04°N, 64.12°E
Startdatum 29. Okt. 2022
Alter 3.4 years
Typ other

Technische Details

Klassifizierung Payload
Masse 1300.00 kg
Trockenmasse 1300.00 kg
Gesamtmasse 1300.00 kg
Länge 2.50 m
Durchmesser 2.50 m
Spannweite 5.00 m
Form Box + 2 Pan
Hersteller IMICAS
Phasenstatus In Orbit
Besitzer/Staat CASC/CN

Most Searched